Regional Weather Roundup
Issued by NWS Upton, NY

Current Version | Previous Version | Text Only | Print | Product List | Glossary On
Versions: 1 2 3 4 5 6 7 8 9 10 11 12 13 14 15 16 17 18 19 20 21 22 23 24 25 26 27 28 29 30 31 32 33 34 35 36 37 38 39 40 41 42 43 44 45 46 47 48 49 50
366 ASUS41 KOKX 301208 RWROKX REGIONAL WEATHER ROUNDUP NATIONAL WEATHER SERVICE NEW YORK NY 800 AM EDT SUN APR 30 2017 NOTE: "FAIR" INDICATES FEW OR NO CLOUDS BELOW 12,000 FEET WITH NO SIGNIFICANT WEATHER AND/OR OBSTRUCTIONS TO VISIBILITY. NYZ071-072-176-178-NJZ106-104-301300- NEW YORK CITY METRO AREA CITY SKY/WX TMP DP RH WIND PRES REMARKS Central Park CLOUDY 59 38 45 NE7 30.26R Wall St Helipt CLOUDY 59 39 47 NE15 30.23S Bronx Bot Gard N/A 57 36 44 N7 30.26R LaGuardia APRT CLOUDY 60 38 43 NE10 30.23R Kennedy INTL PTSUNNY 60 39 45 NE14 30.23R Breezy Point N/A 59 N/A N/A NE9 N/A Newark/Liberty MOSUNNY 60 39 45 NE12 30.22R Teterboro CLOUDY 57 37 47 NE6 30.23R $$ NYZ177-179-078>081-301300- LONG ISLAND NEW YORK CITY SKY/WX TMP DP RH WIND PRES REMARKS Jones Beach N/A 57 N/A N/A NE12 N/A Matinecock PT N/A 54 N/A N/A E10 N/A Farmingdale CLOUDY 58 38 47 NE7 30.23R MacArthur/ISP PTSUNNY 59 39 47 NE12 30.22R Shirley NOT AVBL Mt Sinai Harb N/A 54 N/A N/A N2 N/A Westhampton MOSUNNY 58 38 47 N8 30.25R East Hampton CLOUDY 57 38 49 NE8 30.23R Montauk N/A 56 41 57 N7 30.25R $$ NYZ052-065-067-301300- HUDSON VALLEY CITY SKY/WX TMP DP RH WIND PRES REMARKS White Plains PTSUNNY 56 36 47 NE7 30.22S Larchmont Harb N/A 54 N/A N/A NE7 N/A Croton O-T Hud N/A 55 N/A N/A N2 N/A Newburgh MOSUNNY 50 37 62 NE12 30.26R Montgomery PTSUNNY 53 38 56 NE14 30.24R Poughkeepsie SUNNY 52 36 54 N10 30.25R Albany CLOUDY 44 26 49 N9 30.32R $$ NJZ001-105-106-008-010-013-015-019>022-104-301300- NEW JERSEY CITY SKY/WX TMP DP RH WIND PRES REMARKS Newark/Liberty MOSUNNY 60 39 45 NE12 30.22R Teterboro CLOUDY 57 37 47 NE6 30.23R Caldwell CLOUDY 57 38 48 E9 30.24R Somerville CLOUDY 60 40 47 NE12 30.20R Linden N/A 61 37 40 E8G17 30.22R Perth Amboy N/A 61 N/A N/A E7 N/A Sussex CLOUDY 54 39 57 NE10 30.25R Andover N/A 55 40 56 VRB5 30.22R Trenton CLOUDY 62 47 57 NE7 30.20R Millville CLOUDY 68 58 70 E9 30.16R Atlantic City CLOUDY 65 51 60 E13 30.19R Wrightstown CLOUDY 63 50 61 E8 30.17R Toms River CLOUDY 62 47 57 E14 30.21R Belmar CLOUDY 60 43 53 NE13 30.23R $$ PAZ047>061-062-071-301300- EASTERN PENNSYLVANIA CITY SKY/WX TMP DP RH WIND PRES REMARKS Philadelphia CLOUDY 65 50 58 NE10 30.18R Allentown CLOUDY 59 43 55 NE7 30.21R Scranton CLOUDY 54 39 57 NE6 30.19R $$ CTZ002-004>006-009-010-012-RIZ004-006-007-MAZ004-011-015-301300- SOUTHERN NEW ENGLAND IN CT CITY SKY/WX TMP DP RH WIND PRES REMARKS Bradley INTL MOSUNNY 52 31 44 N15 30.26R Hartford SUNNY 54 34 46 N13 30.25R Danbury PTSUNNY 53 38 56 NE6 30.25R Wtrbury/Oxford MOSUNNY 52 34 50 NE12 30.24R Bridgeport SUNNY 59 38 45 NE7 30.24R Meriden SUNNY 57 36 45 NE9 30.25R New Haven MOSUNNY 56 38 50 N10 30.24R Chester N/A 55 37 50 NE8 30.24R Groton SUNNY 59 40 49 NE12 30.23R Wilimantic SUNNY 58 37 45 NE12 30.25S IN RI CITY SKY/WX TMP DP RH WIND PRES REMARKS Providence MOSUNNY 57 37 47 NE14 30.26R Block Island SUNNY 56 44 64 NE10 30.26R Westerly SUNNY 60 40 47 NE8 30.25R IN MA CITY SKY/WX TMP DP RH WIND PRES REMARKS Boston MOSUNNY 51 29 42 N9 30.28R Worcester SUNNY 48 26 42 VRB3 30.26R Westfield MOSUNNY 51 32 48 NE10 30.27R Provincetown SUNNY 48 36 63 NE15G21 30.29R Nantucket SUNNY 51 36 56 N22G31 30.24R $$ ANZ330-335-338-340-345-350-353-355-301300- COASTAL MARINE OBSERVATIONS STATION/POSITION TIME SKY/WX TEMP WIND PRES VSBY WAVE AIR SEA DIR/SP/G HT/PER (UTC) (F) (DEG/KT/KT) (MB) (MI) (FT/S) NY HARB ENTRANCE 1050 53 50 50/ 8/ 10 1022.9 3/ 7 20 S FIRE ISLAND 1150 53 50 40/ 10/ 12 1022.6 3/ 6 GREAT SOUTH BAY 1115 58 61 20/ 12/ 14 N/A 23 SSW MONTAUK P 1050 52 48 1023.2 3/ 7 15 E BARNEGAT LI 1130 55 N/A 3/ 7 HUDSON CANYON 1050 54 50 70/ 8/ 8 1021.8 4/ 7 KINGS POINT 1142 56 52 60/ 7/ 9 1023.6 EXECUTION ROCKS NOT AVBL CENTRAL LI SOUND 1145 50 350/ 4/ 6 N/A 0 EASTERN LI SOUND NOT AVBL ROBBINS REEF 1142 58 50/ 15/ 18 1023.6 $$ >>>>>>>>>>>>>>>>>>>>>>>>>>>> KEY <<<<<<<<<<<<<<<<<<<<<<<<<<< > < > SKY/WX - Sky Condition/Present Weather < > TMP - Temperature in Fahrenheit < > DP - Dew Point in Fahrenheit < > RH - Relative Humidity in Percent < > WIND - Direction (from) and Speed in MPH < > PRES - Mean Sea Level Pressure (inches of Hg) < > WCI - Wind Chill Index < > VSB - VISIBILITY IN MILES < > HX - HEAT INDEX < > TC - TEMPERATURE IN CELSIUS < > VRB - VARIABLE WIND DIRECTION < > < >>>>>>>>>>>>>>>>>>>>>>>>>>>> KEY <<<<<<<<<<<<<<<<<<<<<<<<<<<

USA.gov is the U.S. government's official web portal to all federal, state and local government web resources and services.